Time,TemperatureF,DewpointF,PressureIn,WindDirection,WindDirectionDegrees,WindSpeedMPH,WindSpeedGustMPH,Humidity,HourlyPrecipIn,Conditions,Clouds,dailyrainin,SoftwareType,DateUTC
2013-03-04 00:00:00,-3.4,-7.8,30.42,North,0,0.2,0.2,81,0.00,,,0.00,WUHU216HW,2013-03-04 09:00:00,
2013-03-04 00:05:00,-3.4,-7.6,30.41,North,0,0.0,0.2,82,0.00,,,0.00,WUHU216HW,2013-03-04 09:05:00,
2013-03-04 00:10:00,-3.6,-8.0,30.42,North,0,0.0,0.0,81,0.00,,,0.00,WUHU216HW,2013-03-04 09:10:00,
2013-03-04 00:15:00,-4.0,-8.4,30.42,North,0,0.0,0.0,81,0.00,,,0.00,WUHU216HW,2013-03-04 09:15:00,
2013-03-04 00:20:00,-4.1,-8.5,30.42,North,0,0.0,0.0,81,0.00,,,0.00,WUHU216HW,2013-03-04 09:20:00,
2013-03-04 00:25:00,-4.5,-8.9,30.42,North,0,0.0,0.0,81,0.00,,,0.00,WUHU216HW,2013-03-04 09:25:00,
2013-03-04 00:30:00,-4.5,-8.9,30.42,North,0,0.4,0.4,81,0.00,,,0.00,WUHU216HW,2013-03-04 09:30:00,
2013-03-04 00:35:00,-4.7,-9.1,30.42,North,0,0.0,0.4,81,0.00,,,0.00,WUHU216HW,2013-03-04 09:35:00,
2013-03-04 00:40:00,-4.7,-9.1,30.42,North,0,0.0,0.0,81,0.00,,,0.00,WUHU216HW,2013-03-04 09:40:00,
2013-03-04 00:45:00,-4.7,-9.1,30.42,North,0,0.0,0.0,81,0.00,,,0.00,WUHU216HW,2013-03-04 09:45:00,
2013-03-04 00:50:00,-4.7,-9.1,30.42,North,0,0.0,0.0,81,0.00,,,0.00,WUHU216HW,2013-03-04 09:50:00,
2013-03-04 00:55:00,-5.2,-9.6,30.42,North,0,0.0,0.0,81,0.00,,,0.00,WUHU216HW,2013-03-04 09:55:00,
2013-03-04 01:00:00,-5.4,-9.8,30.42,North,0,0.0,0.0,81,0.00,,,0.00,WUHU216HW,2013-03-04 10:00:00,
2013-03-04 01:05:00,-5.4,-9.8,30.42,North,0,0.0,0.0,81,0.00,,,0.00,WUHU216HW,2013-03-04 10:05:00,
2013-03-04 01:10:00,-5.4,-9.8,30.42,North,0,0.0,0.0,81,0.00,,,0.00,WUHU216HW,2013-03-04 10:10:00,
2013-03-04 01:15:00,-5.4,-9.8,30.42,North,0,0.0,0.0,81,0.00,,,0.00,WUHU216HW,2013-03-04 10:15:00,
2013-03-04 01:20:00,-5.4,-9.8,30.42,North,0,0.0,0.0,81,0.00,,,0.00,WUHU216HW,2013-03-04 10:20:00,
2013-03-04 01:25:00,-5.4,-9.8,30.43,North,0,0.0,0.0,81,0.00,,,0.00,WUHU216HW,2013-03-04 10:25:00,
2013-03-04 01:30:00,-5.4,-9.8,30.43,North,0,0.0,0.0,81,0.00,,,0.00,WUHU216HW,2013-03-04 10:30:00,
2013-03-04 01:35:00,-5.8,-10.2,30.43,North,0,0.0,0.0,81,0.00,,,0.00,WUHU216HW,2013-03-04 10:35:00,
2013-03-04 01:40:00,-6.1,-10.5,30.43,North,0,0.0,0.0,81,0.00,,,0.00,WUHU216HW,2013-03-04 10:40:00,
2013-03-04 01:45:00,-6.1,-10.5,30.43,North,0,0.0,0.0,81,0.00,,,0.00,WUHU216HW,2013-03-04 10:45:00,
2013-03-04 01:50:00,-6.1,-10.5,30.42,North,0,0.0,0.2,81,0.00,,,0.00,WUHU216HW,2013-03-04 10:50:00,
2013-03-04 01:55:00,-6.3,-10.7,30.42,North,0,0.0,0.2,81,0.00,,,0.00,WUHU216HW,2013-03-04 10:55:00,
2013-03-04 02:00:00,-6.5,-10.9,30.42,North,0,0.0,0.2,81,0.00,,,0.00,WUHU216HW,2013-03-04 11:00:00,
2013-03-04 02:05:00,-6.8,-11.2,30.43,North,0,0.0,0.0,81,0.00,,,0.00,WUHU216HW,2013-03-04 11:05:00,
2013-03-04 02:10:00,-6.8,-11.2,30.42,North,0,0.0,0.0,81,0.00,,,0.00,WUHU216HW,2013-03-04 11:10:00,
2013-03-04 02:15:00,-7.2,-11.6,30.42,North,0,0.2,0.2,81,0.00,,,0.00,WUHU216HW,2013-03-04 11:15:00,
2013-03-04 02:20:00,-7.4,-11.8,30.43,North,0,0.0,0.2,81,0.00,,,0.00,WUHU216HW,2013-03-04 11:20:00,
2013-03-04 02:25:00,-7.6,-12.0,30.43,North,0,0.0,0.0,81,0.00,,,0.00,WUHU216HW,2013-03-04 11:25:00,
2013-03-04 02:30:00,-7.6,-12.0,30.43,North,0,0.2,0.2,81,0.00,,,0.00,WUHU216HW,2013-03-04 11:30:00,
2013-03-04 02:35:00,-7.6,-12.0,30.43,North,0,0.0,0.2,81,0.00,,,0.00,WUHU216HW,2013-03-04 11:35:00,
2013-03-04 02:40:00,-7.7,-12.1,30.43,North,0,0.0,0.2,81,0.00,,,0.00,WUHU216HW,2013-03-04 11:40:00,
2013-03-04 02:45:00,-7.7,-12.1,30.44,North,0,0.0,0.2,81,0.00,,,0.00,WUHU216HW,2013-03-04 11:45:00,
2013-03-04 02:50:00,-7.7,-12.1,30.44,North,0,0.0,0.0,81,0.00,,,0.00,WUHU216HW,2013-03-04 11:50:00,
2013-03-04 02:55:00,-7.6,-12.0,30.44,North,0,0.0,0.0,81,0.00,,,0.00,WUHU216HW,2013-03-04 11:55:00,
2013-03-04 03:00:00,-7.6,-12.0,30.44,North,0,0.0,0.0,81,0.00,,,0.00,WUHU216HW,2013-03-04 12:00:00,
2013-03-04 03:05:00,-7.6,-12.0,30.44,North,0,0.0,0.0,81,0.00,,,0.00,WUHU216HW,2013-03-04 12:05:00,
2013-03-04 03:10:00,-7.7,-12.1,30.44,North,0,0.0,0.0,81,0.00,,,0.00,WUHU216HW,2013-03-04 12:10:00,
2013-03-04 03:15:00,-7.6,-12.0,30.44,North,0,0.0,0.0,81,0.00,,,0.00,WUHU216HW,2013-03-04 12:15:00,
2013-03-04 03:20:00,-7.6,-12.0,30.44,North,0,0.0,0.0,81,0.00,,,0.00,WUHU216HW,2013-03-04 12:20:00,
2013-03-04 03:25:00,-7.6,-12.0,30.44,North,0,0.0,0.0,81,0.00,,,0.00,WUHU216HW,2013-03-04 12:25:00,
2013-03-04 03:30:00,-7.9,-12.3,30.44,North,0,0.0,0.0,81,0.00,,,0.00,WUHU216HW,2013-03-04 12:30:00,
2013-03-04 03:35:00,-8.3,-12.6,30.45,North,0,0.0,0.0,81,0.00,,,0.00,WUHU216HW,2013-03-04 12:35:00,
2013-03-04 03:40:00,-8.6,-13.2,30.44,North,0,0.0,0.0,80,0.00,,,0.00,WUHU216HW,2013-03-04 12:40:00,
2013-03-04 03:45:00,-8.6,-12.9,30.44,North,0,0.0,0.0,81,0.00,,,0.00,WUHU216HW,2013-03-04 12:45:00,
2013-03-04 03:50:00,-8.6,-12.9,30.45,North,0,0.0,0.0,81,0.00,,,0.00,WUHU216HW,2013-03-04 12:50:00,
2013-03-04 03:55:00,-8.8,-13.1,30.45,North,0,0.0,0.0,81,0.00,,,0.00,WUHU216HW,2013-03-04 12:55:00,
2013-03-04 04:00:00,-8.6,-12.9,30.45,North,0,0.0,0.0,81,0.00,,,0.00,WUHU216HW,2013-03-04 13:00:00,
2013-03-04 04:05:00,-8.6,-12.9,30.45,North,0,0.0,0.0,81,0.00,,,0.00,WUHU216HW,2013-03-04 13:05:00,
2013-03-04 04:10:00,-8.5,-12.8,30.45,North,0,0.0,0.0,81,0.00,,,0.00,WUHU216HW,2013-03-04 13:10:00,
2013-03-04 04:15:00,-8.8,-13.1,30.45,North,0,0.0,0.0,81,0.00,,,0.00,WUHU216HW,2013-03-04 13:15:00,
2013-03-04 04:20:00,-9.2,-13.5,30.45,North,0,0.0,0.0,81,0.00,,,0.00,WUHU216HW,2013-03-04 13:20:00,
2013-03-04 04:25:00,-9.2,-13.5,30.45,North,0,0.0,0.0,81,0.00,,,0.00,WUHU216HW,2013-03-04 13:25:00,
2013-03-04 04:30:00,-9.0,-13.3,30.45,North,0,0.0,0.0,81,0.00,,,0.00,WUHU216HW,2013-03-04 13:30:00,
2013-03-04 04:35:00,-9.2,-13.5,30.45,North,0,0.0,0.0,81,0.00,,,0.00,WUHU216HW,2013-03-04 13:35:00,
2013-03-04 04:40:00,-9.4,-13.9,30.45,North,0,0.0,0.0,80,0.00,,,0.00,WUHU216HW,2013-03-04 13:40:00,
2013-03-04 04:45:00,-9.5,-14.0,30.45,North,0,0.0,0.0,80,0.00,,,0.00,WUHU216HW,2013-03-04 13:45:00,
2013-03-04 04:50:00,-9.5,-14.0,30.45,North,0,0.0,0.0,80,0.00,,,0.00,WUHU216HW,2013-03-04 13:50:00,
2013-03-04 04:55:00,-9.5,-14.0,30.45,North,0,0.0,0.0,80,0.00,,,0.00,WUHU216HW,2013-03-04 13:55:00,
2013-03-04 05:00:00,-9.7,-14.2,30.46,North,0,0.0,0.0,80,0.00,,,0.00,WUHU216HW,2013-03-04 14:00:00,
2013-03-04 05:05:00,-9.7,-14.2,30.45,North,0,0.0,0.0,80,0.00,,,0.00,WUHU216HW,2013-03-04 14:05:00,
2013-03-04 05:10:00,-9.7,-14.2,30.46,North,0,0.0,0.0,80,0.00,,,0.00,WUHU216HW,2013-03-04 14:10:00,
2013-03-04 05:15:00,-9.7,-14.2,30.46,North,0,0.3,0.4,80,0.00,,,0.00,WUHU216HW,2013-03-04 14:15:00,
2013-03-04 05:20:00,-9.9,-14.4,30.46,North,0,0.0,0.4,80,0.00,,,0.00,WUHU216HW,2013-03-04 14:20:00,
2013-03-04 05:25:00,-9.9,-14.4,30.46,North,0,0.0,0.2,80,0.00,,,0.00,WUHU216HW,2013-03-04 14:25:00,
2013-03-04 05:30:00,-9.7,-14.2,30.46,North,0,0.0,0.0,80,0.00,,,0.00,WUHU216HW,2013-03-04 14:30:00,
2013-03-04 05:35:00,-10.1,-14.6,30.46,North,0,0.0,0.0,80,0.00,,,0.00,WUHU216HW,2013-03-04 14:35:00,
2013-03-04 05:40:00,-10.4,-15.2,30.46,North,0,0.0,0.0,79,0.00,,,0.00,WUHU216HW,2013-03-04 14:40:00,
2013-03-04 05:45:00,-10.4,-15.2,30.46,North,0,0.0,0.2,79,0.00,,,0.00,WUHU216HW,2013-03-04 14:45:00,
2013-03-04 05:50:00,-10.6,-15.4,30.47,North,0,0.0,0.2,79,0.00,,,0.00,WUHU216HW,2013-03-04 14:50:00,
2013-03-04 05:55:00,-11.0,-15.7,30.46,North,0,0.0,0.0,79,0.00,,,0.00,WUHU216HW,2013-03-04 14:55:00,
2013-03-04 06:00:00,-11.2,-15.9,30.46,North,0,0.0,0.0,79,0.00,,,0.00,WUHU216HW,2013-03-04 15:00:00,
2013-03-04 06:05:00,-11.2,-15.7,30.47,North,0,0.0,0.0,80,0.00,,,0.00,WUHU216HW,2013-03-04 15:05:00,
2013-03-04 06:10:00,-11.0,-15.5,30.47,North,0,0.0,0.0,80,0.00,,,0.00,WUHU216HW,2013-03-04 15:10:00,
2013-03-04 06:15:00,-11.0,-15.5,30.47,North,0,0.0,0.0,80,0.00,,,0.00,WUHU216HW,2013-03-04 15:15:00,
2013-03-04 06:20:00,-10.8,-15.3,30.46,North,0,0.0,0.0,80,0.00,,,0.00,WUHU216HW,2013-03-04 15:20:00,
2013-03-04 06:25:00,-11.2,-15.7,30.47,North,0,0.0,0.0,80,0.00,,,0.00,WUHU216HW,2013-03-04 15:25:00,
2013-03-04 06:30:00,-11.2,-15.7,30.46,North,0,0.0,0.0,80,0.00,,,0.00,WUHU216HW,2013-03-04 15:30:00,
2013-03-04 06:35:00,-11.2,-15.7,30.47,North,0,0.0,0.0,80,0.00,,,0.00,WUHU216HW,2013-03-04 15:35:00,
2013-03-04 06:40:00,-11.2,-15.7,30.47,North,0,0.0,0.0,80,0.00,,,0.00,WUHU216HW,2013-03-04 15:40:00,
2013-03-04 06:45:00,-11.0,-15.5,30.46,North,0,0.0,0.0,80,0.00,,,0.00,WUHU216HW,2013-03-04 15:45:00,
2013-03-04 06:50:00,-11.2,-15.7,30.46,North,0,0.0,0.0,80,0.00,,,0.00,WUHU216HW,2013-03-04 15:50:00,
2013-03-04 06:55:00,-11.2,-15.7,30.46,North,0,0.0,0.0,80,0.00,,,0.00,WUHU216HW,2013-03-04 15:55:00,
2013-03-04 07:00:00,-11.3,-15.8,30.46,North,0,0.0,0.0,80,0.00,,,0.00,WUHU216HW,2013-03-04 16:00:00,
2013-03-04 07:05:00,-11.3,-15.8,30.46,North,0,0.0,0.0,80,0.00,,,0.00,WUHU216HW,2013-03-04 16:05:00,
2013-03-04 07:10:00,-11.5,-16.3,30.46,North,0,0.0,0.0,79,0.00,,,0.00,WUHU216HW,2013-03-04 16:10:00,
2013-03-04 07:15:00,-11.9,-16.6,30.46,North,0,0.0,0.0,79,0.00,,,0.00,WUHU216HW,2013-03-04 16:15:00,
2013-03-04 07:20:00,-12.1,-16.8,30.46,North,0,0.0,0.0,79,0.00,,,0.00,WUHU216HW,2013-03-04 16:20:00,
2013-03-04 07:25:00,-11.9,-16.6,30.46,North,0,0.0,0.0,79,0.00,,,0.00,WUHU216HW,2013-03-04 16:25:00,
2013-03-04 07:30:00,-11.7,-16.2,30.46,North,0,0.0,0.0,80,0.00,,,0.00,WUHU216HW,2013-03-04 16:30:00,
2013-03-04 07:35:00,-11.7,-16.2,30.46,North,0,0.0,0.0,80,0.00,,,0.00,WUHU216HW,2013-03-04 16:35:00,
2013-03-04 07:40:00,-11.7,-16.2,30.46,North,0,0.0,0.0,80,0.00,,,0.00,WUHU216HW,2013-03-04 16:40:00,
2013-03-04 07:45:00,-11.3,-15.8,30.46,North,0,0.0,0.0,80,0.00,,,0.00,WUHU216HW,2013-03-04 16:45:00,
2013-03-04 07:50:00,-11.0,-15.5,30.46,North,0,0.0,0.0,80,0.00,,,0.00,WUHU216HW,2013-03-04 16:50:00,
2013-03-04 07:55:00,-11.0,-15.5,30.46,North,0,0.0,0.0,80,0.00,,,0.00,WUHU216HW,2013-03-04 16:55:00,
2013-03-04 08:00:00,-11.2,-15.9,30.46,North,0,0.0,0.0,79,0.00,,,0.00,WUHU216HW,2013-03-04 17:00:00,
2013-03-04 08:05:00,-11.2,-15.7,30.46,North,0,0.0,0.0,80,0.00,,,0.00,WUHU216HW,2013-03-04 17:05:00,
2013-03-04 08:10:00,-11.2,-15.7,30.46,North,0,0.0,0.0,80,0.00,,,0.00,WUHU216HW,2013-03-04 17:10:00,
2013-03-04 08:15:00,-11.3,-16.1,30.46,North,0,0.0,0.0,79,0.00,,,0.00,WUHU216HW,2013-03-04 17:15:00,
2013-03-04 08:20:00,-11.5,-16.3,30.46,North,0,0.0,0.0,79,0.00,,,0.00,WUHU216HW,2013-03-04 17:20:00,
2013-03-04 08:25:00,-11.3,-16.1,30.46,North,0,0.0,0.0,79,0.00,,,0.00,WUHU216HW,2013-03-04 17:25:00,
2013-03-04 08:30:00,-11.2,-15.7,30.46,North,0,0.0,0.0,80,0.00,,,0.00,WUHU216HW,2013-03-04 17:30:00,
2013-03-04 08:35:00,-11.0,-15.5,30.46,North,0,0.0,0.0,80,0.00,,,0.00,WUHU216HW,2013-03-04 17:35:00,
2013-03-04 08:40:00,-10.6,-15.1,30.45,North,0,0.0,0.0,80,0.00,,,0.00,WUHU216HW,2013-03-04 17:40:00,
2013-03-04 08:45:00,-10.4,-14.9,30.45,North,0,0.0,0.0,80,0.00,,,0.00,WUHU216HW,2013-03-04 17:45:00,
2013-03-04 08:50:00,-10.4,-14.9,30.46,North,0,0.0,0.0,80,0.00,,,0.00,WUHU216HW,2013-03-04 17:50:00,
2013-03-04 08:55:00,-9.7,-14.2,30.46,North,0,0.0,0.0,80,0.00,,,0.00,WUHU216HW,2013-03-04 17:55:00,
2013-03-04 09:00:00,-9.2,-13.5,30.45,North,0,0.0,0.0,81,0.00,,,0.00,WUHU216HW,2013-03-04 18:00:00,
2013-03-04 09:05:00,-9.0,-13.3,30.46,North,0,0.0,0.0,81,0.00,,,0.00,WUHU216HW,2013-03-04 18:05:00,
2013-03-04 09:10:00,-8.8,-13.1,30.46,North,0,0.0,0.0,81,0.00,,,0.00,WUHU216HW,2013-03-04 18:10:00,
2013-03-04 09:15:00,-8.3,-12.6,30.46,North,0,0.0,0.0,81,0.00,,,0.00,WUHU216HW,2013-03-04 18:15:00,
2013-03-04 09:20:00,-7.6,-12.0,30.46,North,0,0.0,0.0,81,0.00,,,0.00,WUHU216HW,2013-03-04 18:20:00,
2013-03-04 09:25:00,-7.0,-11.4,30.45,North,0,0.0,0.0,81,0.00,,,0.00,WUHU216HW,2013-03-04 18:25:00,
2013-03-04 09:29:00,-6.8,-11.2,30.45,North,0,0.0,0.0,81,0.00,,,0.00,WUHU216HW,2013-03-04 18:29:00,
2013-03-04 09:34:00,-6.5,-10.9,30.46,North,0,0.0,0.0,81,0.00,,,0.00,WUHU216HW,2013-03-04 18:34:00,
2013-03-04 09:39:00,-6.1,-10.5,30.46,North,0,0.0,0.0,81,0.00,,,0.00,WUHU216HW,2013-03-04 18:39:00,
2013-03-04 09:45:00,-5.2,-9.4,30.46,North,0,0.0,0.0,82,0.00,,,0.00,WUHU216HW,2013-03-04 18:45:00,
2013-03-04 09:50:00,-4.7,-8.9,30.46,North,0,0.0,0.0,82,0.00,,,0.00,WUHU216HW,2013-03-04 18:50:00,
2013-03-04 09:55:00,-4.0,-8.2,30.46,North,0,0.0,0.0,82,0.00,,,0.00,WUHU216HW,2013-03-04 18:55:00,
2013-03-04 10:00:00,-3.2,-7.5,30.46,North,0,0.0,0.0,82,0.00,,,0.00,WUHU216HW,2013-03-04 19:00:00,
2013-03-04 10:05:00,-0.5,-4.5,30.46,North,0,0.0,0.0,83,0.00,,,0.00,WUHU216HW,2013-03-04 19:05:00,
2013-03-04 10:10:00,0.7,-3.6,30.46,North,0,0.0,0.0,82,0.00,,,0.00,WUHU216HW,2013-03-04 19:10:00,
2013-03-04 10:15:00,1.1,-3.2,30.46,North,0,0.0,0.0,82,0.00,,,0.00,WUHU216HW,2013-03-04 19:15:00,
2013-03-04 10:20:00,1.3,-3.0,30.46,North,0,0.0,0.0,82,0.00,,,0.00,WUHU216HW,2013-03-04 19:20:00,
2013-03-04 10:25:00,2.0,-2.2,30.45,North,0,0.0,0.0,83,0.00,,,0.00,WUHU216HW,2013-03-04 19:25:00,
2013-03-04 10:30:00,3.1,-1.2,30.45,North,0,0.0,0.0,82,0.00,,,0.00,WUHU216HW,2013-03-04 19:30:00,
2013-03-04 10:35:00,5.9,1.8,30.45,North,0,0.0,0.0,83,0.00,,,0.00,WUHU216HW,2013-03-04 19:35:00,
2013-03-04 10:40:00,8.5,3.9,30.45,North,0,0.0,0.0,81,0.00,,,0.00,WUHU216HW,2013-03-04 19:40:00,
2013-03-04 10:45:00,7.9,2.8,30.45,North,0,0.0,0.0,79,0.00,,,0.00,WUHU216HW,2013-03-04 19:45:00,
2013-03-04 10:50:00,7.0,2.2,30.45,North,0,0.0,0.0,80,0.00,,,0.00,WUHU216HW,2013-03-04 19:50:00,
2013-03-04 10:55:00,7.4,2.5,30.44,North,0,0.2,0.2,80,0.00,,,0.00,WUHU216HW,2013-03-04 19:55:00,
2013-03-04 11:00:00,8.6,3.8,30.44,North,0,0.2,0.9,80,0.00,,,0.00,WUHU216HW,2013-03-04 20:00:00,
2013-03-04 11:05:00,11.2,6.4,30.44,North,0,0.4,0.9,81,0.00,,,0.00,WUHU216HW,2013-03-04 20:05:00,
2013-03-04 11:10:00,10.4,4.5,30.44,North,0,0.0,0.4,77,0.00,,,0.00,WUHU216HW,2013-03-04 20:10:00,
2013-03-04 11:15:00,9.5,3.7,30.44,North,0,0.0,0.4,77,0.00,,,0.00,WUHU216HW,2013-03-04 20:15:00,
2013-03-04 11:20:00,9.2,3.7,30.44,North,0,0.0,0.2,78,0.00,,,0.00,WUHU216HW,2013-03-04 20:20:00,
2013-03-04 11:25:00,9.4,3.9,30.43,North,0,0.2,0.2,78,0.00,,,0.00,WUHU216HW,2013-03-04 20:25:00,
2013-03-04 11:30:00,9.7,4.1,30.43,North,0,0.0,0.2,78,0.00,,,0.00,WUHU216HW,2013-03-04 20:30:00,
2013-03-04 11:35:00,9.9,4.3,30.43,North,0,0.0,0.2,78,0.00,,,0.00,WUHU216HW,2013-03-04 20:35:00,
2013-03-04 11:40:00,10.4,5.1,30.43,North,0,0.0,0.2,79,0.00,,,0.00,WUHU216HW,2013-03-04 20:40:00,
2013-03-04 11:45:00,10.8,5.8,30.43,North,0,0.0,0.0,80,0.00,,,0.00,WUHU216HW,2013-03-04 20:45:00,
2013-03-04 11:50:00,11.2,5.9,30.43,North,0,0.0,0.0,79,0.00,,,0.00,WUHU216HW,2013-03-04 20:50:00,
2013-03-04 11:55:00,11.9,6.6,30.42,North,0,0.0,0.0,79,0.00,,,0.00,WUHU216HW,2013-03-04 20:55:00,
2013-03-04 12:00:00,12.6,7.3,30.43,North,0,0.0,0.0,79,0.00,,,0.00,WUHU216HW,2013-03-04 21:00:00,
2013-03-04 12:05:00,12.8,7.5,30.43,North,0,0.0,0.0,79,0.00,,,0.00,WUHU216HW,2013-03-04 21:05:00,
2013-03-04 12:10:00,13.3,7.8,30.43,North,0,0.0,0.0,78,0.00,,,0.00,WUHU216HW,2013-03-04 21:10:00,
2013-03-04 12:15:00,13.9,8.3,30.43,North,0,0.0,0.0,78,0.00,,,0.00,WUHU216HW,2013-03-04 21:15:00,
2013-03-04 12:20:00,14.0,8.1,30.43,North,0,0.0,0.0,77,0.00,,,0.00,WUHU216HW,2013-03-04 21:20:00,
2013-03-04 12:25:00,14.2,8.3,30.42,North,0,0.2,0.2,77,0.00,,,0.00,WUHU216HW,2013-03-04 21:25:00,
2013-03-04 12:30:00,15.1,9.2,30.42,North,0,0.0,0.4,77,0.00,,,0.00,WUHU216HW,2013-03-04 21:30:00,
2013-03-04 12:35:00,16.6,10.5,30.42,North,0,0.0,0.4,77,0.00,,,0.00,WUHU216HW,2013-03-04 21:35:00,
2013-03-04 12:40:00,16.6,9.6,30.42,North,0,0.0,0.4,74,0.00,,,0.00,WUHU216HW,2013-03-04 21:40:00,
2013-03-04 12:45:00,16.0,8.6,30.42,North,0,0.4,0.4,72,0.00,,,0.00,WUHU216HW,2013-03-04 21:45:00,
2013-03-04 12:50:00,15.8,8.4,30.42,North,0,0.0,0.4,72,0.00,,,0.00,WUHU216HW,2013-03-04 21:50:00,
2013-03-04 12:55:00,15.7,8.5,30.42,North,0,0.0,0.2,73,0.00,,,0.00,WUHU216HW,2013-03-04 21:55:00,
2013-03-04 13:00:00,15.7,8.5,30.42,North,0,0.0,0.0,73,0.00,,,0.00,WUHU216HW,2013-03-04 22:00:00,
2013-03-04 13:05:00,15.8,8.6,30.42,North,0,0.0,0.0,73,0.00,,,0.00,WUHU216HW,2013-03-04 22:05:00,
2013-03-04 13:10:00,17.8,10.0,30.41,North,0,0.4,0.4,71,0.00,,,0.00,WUHU216HW,2013-03-04 22:10:00,
2013-03-04 13:15:00,18.7,10.8,30.41,North,0,0.0,0.9,71,0.00,,,0.00,WUHU216HW,2013-03-04 22:15:00,
2013-03-04 13:20:00,18.7,10.2,30.41,North,0,0.0,0.9,69,0.00,,,0.00,WUHU216HW,2013-03-04 22:20:00,
2013-03-04 13:25:00,18.4,9.6,30.41,North,0,0.2,0.2,68,0.00,,,0.00,WUHU216HW,2013-03-04 22:25:00,
2013-03-04 13:30:00,18.4,8.8,30.40,North,0,0.2,0.2,66,0.00,,,0.00,WUHU216HW,2013-03-04 22:30:00,
2013-03-04 13:35:00,18.5,10.0,30.40,North,0,0.0,0.2,69,0.00,,,0.00,WUHU216HW,2013-03-04 22:35:00,
2013-03-04 13:40:00,19.1,10.2,30.40,North,0,0.2,0.2,68,0.00,,,0.00,WUHU216HW,2013-03-04 22:40:00,
2013-03-04 13:45:00,19.4,10.2,30.40,North,0,0.4,0.7,67,0.00,,,0.00,WUHU216HW,2013-03-04 22:45:00,
2013-03-04 13:50:00,20.0,11.3,30.40,North,0,0.4,0.7,69,0.00,,,0.00,WUHU216HW,2013-03-04 22:50:00,
2013-03-04 13:55:00,20.5,11.5,30.39,North,0,0.0,0.4,68,0.00,,,0.00,WUHU216HW,2013-03-04 22:55:00,
2013-03-04 14:00:00,20.7,12.1,30.39,North,0,0.0,0.4,69,0.00,,,0.00,WUHU216HW,2013-03-04 23:00:00,
2013-03-04 14:05:00,20.7,12.1,30.39,North,0,0.0,0.0,69,0.00,,,0.00,WUHU216HW,2013-03-04 23:05:00,
2013-03-04 14:10:00,20.9,10.9,30.39,North,0,0.2,0.4,65,0.00,,,0.00,WUHU216HW,2013-03-04 23:10:00,
2013-03-04 14:15:00,21.2,11.6,30.39,North,0,0.0,1.1,66,0.00,,,0.00,WUHU216HW,2013-03-04 23:15:00,
2013-03-04 14:20:00,21.6,12.0,30.39,North,0,0.4,1.1,66,0.00,,,0.00,WUHU216HW,2013-03-04 23:20:00,
2013-03-04 14:25:00,22.0,12.0,30.38,North,0,0.0,1.1,65,0.00,,,0.00,WUHU216HW,2013-03-04 23:25:00,
2013-03-04 14:30:00,22.0,12.2,30.39,North,0,0.4,1.1,66,0.00,,,0.00,WUHU216HW,2013-03-04 23:30:00,
2013-03-04 14:35:00,22.1,12.4,30.39,North,0,0.0,0.7,66,0.00,,,0.00,WUHU216HW,2013-03-04 23:35:00,
2013-03-04 14:40:00,22.3,13.0,30.38,North,0,0.0,0.0,67,0.00,,,0.00,WUHU216HW,2013-03-04 23:40:00,
2013-03-04 14:45:00,22.3,13.0,30.38,North,0,0.0,0.0,67,0.00,,,0.00,WUHU216HW,2013-03-04 23:45:00,
2013-03-04 14:50:00,22.7,13.0,30.38,North,0,0.0,0.0,66,0.00,,,0.00,WUHU216HW,2013-03-04 23:50:00,
2013-03-04 14:55:00,22.9,13.5,30.38,North,0,0.0,0.0,67,0.00,,,0.00,WUHU216HW,2013-03-04 23:55:00,
2013-03-04 15:00:00,23.2,13.5,30.37,North,0,0.0,0.0,66,0.00,,,0.00,WUHU216HW,2013-03-05 00:00:00,
2013-03-04 15:05:00,23.4,13.7,30.37,North,0,0.0,0.0,66,0.00,,,0.00,WUHU216HW,2013-03-05 00:05:00,
2013-03-04 15:10:00,23.8,14.1,30.37,North,0,0.0,0.0,66,0.00,,,0.00,WUHU216HW,2013-03-05 00:10:00,
2013-03-04 15:15:00,23.8,14.1,30.37,North,0,0.0,0.0,66,0.00,,,0.00,WUHU216HW,2013-03-05 00:15:00,
2013-03-04 15:20:00,23.8,14.3,30.36,North,0,0.0,0.0,67,0.00,,,0.00,WUHU216HW,2013-03-05 00:20:00,
2013-03-04 15:25:00,23.8,14.3,30.37,North,0,0.0,0.0,67,0.00,,,0.00,WUHU216HW,2013-03-05 00:25:00,
2013-03-04 15:30:00,23.9,14.1,30.36,North,0,0.0,0.0,66,0.00,,,0.00,WUHU216HW,2013-03-05 00:30:00,
2013-03-04 15:35:00,24.1,14.3,30.36,North,0,0.9,0.9,66,0.00,,,0.00,WUHU216HW,2013-03-05 00:35:00,
2013-03-04 15:40:00,24.3,13.8,30.36,North,0,0.3,0.9,64,0.00,,,0.00,WUHU216HW,2013-03-05 00:40:00,
2013-03-04 15:45:00,24.7,14.1,30.36,North,0,0.0,0.7,64,0.00,,,0.00,WUHU216HW,2013-03-05 00:45:00,
2013-03-04 15:50:00,24.8,14.7,30.36,North,0,0.0,0.4,65,0.00,,,0.00,WUHU216HW,2013-03-05 00:50:00,
2013-03-04 15:55:00,25.0,14.9,30.35,North,0,0.0,0.4,65,0.00,,,0.00,WUHU216HW,2013-03-05 00:55:00,
2013-03-04 16:00:00,25.9,15.7,30.35,North,0,0.0,0.0,65,0.00,,,0.00,WUHU216HW,2013-03-05 01:00:00,
2013-03-04 16:05:00,25.9,15.7,30.35,North,0,0.0,0.0,65,0.00,,,0.00,WUHU216HW,2013-03-05 01:05:00,
2013-03-04 16:10:00,25.6,15.4,30.35,North,0,0.0,0.0,65,0.00,,,0.00,WUHU216HW,2013-03-05 01:10:00,
2013-03-04 16:15:00,25.0,14.5,30.35,North,0,0.0,0.0,64,0.00,,,0.00,WUHU216HW,2013-03-05 01:15:00,
2013-03-04 16:20:00,24.8,14.7,30.35,North,0,0.0,0.0,65,0.00,,,0.00,WUHU216HW,2013-03-05 01:20:00,
2013-03-04 16:25:00,24.3,14.1,30.36,North,0,0.0,0.0,65,0.00,,,0.00,WUHU216HW,2013-03-05 01:25:00,
2013-03-04 16:30:00,24.1,13.7,30.35,North,0,0.0,0.7,64,0.00,,,0.00,WUHU216HW,2013-03-05 01:30:00,
2013-03-04 16:35:00,24.1,14.3,30.35,North,0,0.0,0.7,66,0.00,,,0.00,WUHU216HW,2013-03-05 01:35:00,
2013-03-04 16:40:00,24.1,14.0,30.35,North,0,0.2,0.2,65,0.00,,,0.00,WUHU216HW,2013-03-05 01:40:00,
2013-03-04 16:45:00,24.1,14.3,30.35,North,0,0.0,0.2,66,0.00,,,0.00,WUHU216HW,2013-03-05 01:45:00,
2013-03-04 16:50:00,23.9,14.1,30.35,North,0,0.0,0.0,66,0.00,,,0.00,WUHU216HW,2013-03-05 01:50:00,
2013-03-04 16:55:00,23.6,13.9,30.35,North,0,0.0,0.0,66,0.00,,,0.00,WUHU216HW,2013-03-05 01:55:00,
2013-03-04 17:00:00,23.4,13.7,30.35,North,0,0.0,0.0,66,0.00,,,0.00,WUHU216HW,2013-03-05 02:00:00,
2013-03-04 17:05:00,23.0,13.3,30.34,North,0,0.0,0.0,66,0.00,,,0.00,WUHU216HW,2013-03-05 02:05:00,
2013-03-04 17:10:00,22.9,13.5,30.34,North,0,0.0,0.0,67,0.00,,,0.00,WUHU216HW,2013-03-05 02:10:00,
2013-03-04 17:15:00,22.9,13.1,30.34,North,0,0.0,0.0,66,0.00,,,0.00,WUHU216HW,2013-03-05 02:15:00,
2013-03-04 17:20:00,22.9,13.5,30.34,North,0,0.0,0.0,67,0.00,,,0.00,WUHU216HW,2013-03-05 02:20:00,
2013-03-04 17:25:00,22.3,13.0,30.34,North,0,0.0,0.0,67,0.00,,,0.00,WUHU216HW,2013-03-05 02:25:00,
2013-03-04 17:30:00,22.0,12.2,30.34,North,0,0.0,0.0,66,0.00,,,0.00,WUHU216HW,2013-03-05 02:30:00,
2013-03-04 17:35:00,21.8,12.4,30.34,North,0,0.0,0.0,67,0.00,,,0.00,WUHU216HW,2013-03-05 02:35:00,
2013-03-04 17:40:00,21.6,12.2,30.33,North,0,0.0,0.0,67,0.00,,,0.00,WUHU216HW,2013-03-05 02:40:00,
2013-03-04 17:45:00,21.2,12.0,30.33,North,0,0.0,0.0,67,0.00,,,0.00,WUHU216HW,2013-03-05 02:45:00,
2013-03-04 17:50:00,20.9,11.9,30.33,North,0,0.0,0.0,68,0.00,,,0.00,WUHU216HW,2013-03-05 02:50:00,
2013-03-04 17:55:00,20.7,12.1,30.33,North,0,0.2,0.4,69,0.00,,,0.00,WUHU216HW,2013-03-05 02:55:00,
2013-03-04 18:00:00,20.5,11.9,30.33,North,0,0.0,0.4,69,0.00,,,0.00,WUHU216HW,2013-03-05 03:00:00,
2013-03-04 18:05:00,20.2,11.5,30.33,North,0,0.0,0.0,69,0.00,,,0.00,WUHU216HW,2013-03-05 03:05:00,
2013-03-04 18:10:00,19.8,11.2,30.33,North,0,0.0,0.0,69,0.00,,,0.00,WUHU216HW,2013-03-05 03:10:00,
2013-03-04 18:15:00,19.3,11.0,30.33,North,0,0.0,0.0,70,0.00,,,0.00,WUHU216HW,2013-03-05 03:15:00,
2013-03-04 18:20:00,18.7,11.4,30.33,North,0,0.0,0.0,73,0.00,,,0.00,WUHU216HW,2013-03-05 03:20:00,
2013-03-04 18:25:00,18.4,10.4,30.32,North,0,0.0,0.0,71,0.00,,,0.00,WUHU216HW,2013-03-05 03:25:00,
2013-03-04 18:30:00,17.8,10.0,30.32,North,0,0.0,0.0,71,0.00,,,0.00,WUHU216HW,2013-03-05 03:30:00,
2013-03-04 18:35:00,17.5,9.6,30.32,North,0,0.0,0.0,71,0.00,,,0.00,WUHU216HW,2013-03-05 03:35:00,
2013-03-04 18:40:00,16.9,9.5,30.32,North,0,0.0,0.0,72,0.00,,,0.00,WUHU216HW,2013-03-05 03:40:00,
2013-03-04 18:45:00,16.7,9.8,30.32,North,0,0.0,0.0,74,0.00,,,0.00,WUHU216HW,2013-03-05 03:45:00,
2013-03-04 18:50:00,16.4,9.5,30.32,North,0,0.0,0.0,74,0.00,,,0.00,WUHU216HW,2013-03-05 03:50:00,
2013-03-04 18:55:00,16.2,9.9,30.32,North,0,0.0,0.0,76,0.00,,,0.00,WUHU216HW,2013-03-05 03:55:00,
2013-03-04 19:00:00,16.0,9.5,30.32,North,0,0.0,0.0,75,0.00,,,0.00,WUHU216HW,2013-03-05 04:00:00,
2013-03-04 19:05:00,15.7,9.7,30.32,North,0,0.0,0.0,77,0.00,,,0.00,WUHU216HW,2013-03-05 04:05:00,
2013-03-04 19:10:00,15.5,9.3,30.32,North,0,0.0,0.0,76,0.00,,,0.00,WUHU216HW,2013-03-05 04:10:00,
2013-03-04 19:15:00,14.8,8.3,30.32,North,0,0.0,0.0,75,0.00,,,0.00,WUHU216HW,2013-03-05 04:15:00,
2013-03-04 19:20:00,14.4,8.2,30.32,North,0,0.0,0.0,76,0.00,,,0.00,WUHU216HW,2013-03-05 04:20:00,
2013-03-04 19:25:00,14.0,7.8,30.32,North,0,0.0,0.0,76,0.00,,,0.00,WUHU216HW,2013-03-05 04:25:00,
2013-03-04 19:30:00,13.7,7.5,30.32,North,0,0.0,0.0,76,0.00,,,0.00,WUHU216HW,2013-03-05 04:30:00,
2013-03-04 19:35:00,13.3,7.1,30.32,North,0,0.0,0.0,76,0.00,,,0.00,WUHU216HW,2013-03-05 04:35:00,
2013-03-04 19:40:00,13.1,7.2,30.32,North,0,0.0,0.0,77,0.00,,,0.00,WUHU216HW,2013-03-05 04:40:00,
2013-03-04 19:45:00,12.8,7.2,30.32,North,0,0.0,0.0,78,0.00,,,0.00,WUHU216HW,2013-03-05 04:45:00,
2013-03-04 19:50:00,12.4,6.9,30.31,North,0,0.0,0.0,78,0.00,,,0.00,WUHU216HW,2013-03-05 04:50:00,
2013-03-04 19:55:00,12.2,6.3,30.31,North,0,0.0,0.0,77,0.00,,,0.00,WUHU216HW,2013-03-05 04:55:00,
2013-03-04 20:00:00,11.9,6.6,30.31,North,0,0.0,0.0,79,0.00,,,0.00,WUHU216HW,2013-03-05 05:00:00,
2013-03-04 20:05:00,11.7,6.4,30.31,North,0,0.0,0.0,79,0.00,,,0.00,WUHU216HW,2013-03-05 05:05:00,
2013-03-04 20:10:00,11.2,6.1,30.31,North,0,0.0,0.0,80,0.00,,,0.00,WUHU216HW,2013-03-05 05:10:00,
2013-03-04 20:15:00,11.0,6.2,30.31,North,0,0.0,0.0,81,0.00,,,0.00,WUHU216HW,2013-03-05 05:15:00,
2013-03-04 20:20:00,10.8,6.0,30.31,North,0,0.0,0.0,81,0.00,,,0.00,WUHU216HW,2013-03-05 05:20:00,
2013-03-04 20:25:00,10.6,5.9,30.30,North,0,0.0,0.0,81,0.00,,,0.00,WUHU216HW,2013-03-05 05:25:00,
2013-03-04 20:30:00,10.4,5.4,30.30,North,0,0.0,0.0,80,0.00,,,0.00,WUHU216HW,2013-03-05 05:30:00,
2013-03-04 20:35:00,10.3,5.2,30.31,North,0,0.0,0.0,80,0.00,,,0.00,WUHU216HW,2013-03-05 05:35:00,
2013-03-04 20:40:00,10.1,5.0,30.30,North,0,0.0,0.0,80,0.00,,,0.00,WUHU216HW,2013-03-05 05:40:00,
2013-03-04 20:45:00,9.9,5.0,30.30,North,0,0.0,0.0,80,0.00,,,0.00,WUHU216HW,2013-03-05 05:45:00,
2013-03-04 20:50:00,9.7,5.1,30.30,North,0,0.0,0.0,81,0.00,,,0.00,WUHU216HW,2013-03-05 05:50:00,
2013-03-04 20:55:00,9.2,4.5,30.30,North,0,0.0,0.0,81,0.00,,,0.00,WUHU216HW,2013-03-05 05:55:00,
2013-03-04 21:00:00,9.0,4.2,30.30,North,0,0.0,0.0,80,0.00,,,0.00,WUHU216HW,2013-03-05 06:00:00,
2013-03-04 21:05:00,9.0,4.2,30.30,North,0,0.0,0.0,80,0.00,,,0.00,WUHU216HW,2013-03-05 06:05:00,
2013-03-04 21:10:00,8.8,4.0,30.30,North,0,0.0,0.0,80,0.00,,,0.00,WUHU216HW,2013-03-05 06:10:00,
2013-03-04 21:15:00,8.5,3.9,30.29,North,0,0.0,0.0,81,0.00,,,0.00,WUHU216HW,2013-03-05 06:15:00,
2013-03-04 21:20:00,8.1,3.2,30.30,North,0,0.0,0.0,80,0.00,,,0.00,WUHU216HW,2013-03-05 06:20:00,
2013-03-04 21:25:00,7.9,3.3,30.29,North,0,0.0,0.0,81,0.00,,,0.00,WUHU216HW,2013-03-05 06:25:00,
2013-03-04 21:30:00,7.7,3.6,30.29,North,0,0.0,0.0,83,0.00,,,0.00,WUHU216HW,2013-03-05 06:30:00,
2013-03-04 21:35:00,7.6,3.4,30.29,North,0,0.0,0.0,83,0.00,,,0.00,WUHU216HW,2013-03-05 06:35:00,
2013-03-04 21:40:00,7.4,3.2,30.29,North,0,0.0,0.0,83,0.00,,,0.00,WUHU216HW,2013-03-05 06:40:00,
2013-03-04 21:45:00,7.2,2.9,30.29,North,0,0.0,0.0,82,0.00,,,0.00,WUHU216HW,2013-03-05 06:45:00,
2013-03-04 21:50:00,7.2,2.9,30.29,North,0,0.0,0.0,82,0.00,,,0.00,WUHU216HW,2013-03-05 06:50:00,
2013-03-04 21:55:00,7.2,3.1,30.29,North,0,0.0,0.0,83,0.00,,,0.00,WUHU216HW,2013-03-05 06:55:00,
2013-03-04 22:00:00,7.0,2.9,30.29,North,0,0.0,0.0,83,0.00,,,0.00,WUHU216HW,2013-03-05 07:00:00,
2013-03-04 22:05:00,7.0,2.9,30.29,North,0,0.0,0.0,83,0.00,,,0.00,WUHU216HW,2013-03-05 07:05:00,
2013-03-04 22:10:00,7.2,3.1,30.29,North,0,0.0,0.0,83,0.00,,,0.00,WUHU216HW,2013-03-05 07:10:00,
2013-03-04 22:15:00,7.0,2.9,30.29,North,0,0.0,0.0,83,0.00,,,0.00,WUHU216HW,2013-03-05 07:15:00,
2013-03-04 22:20:00,6.8,2.7,30.29,North,0,0.0,0.0,83,0.00,,,0.00,WUHU216HW,2013-03-05 07:20:00,
2013-03-04 22:25:00,6.8,2.7,30.29,North,0,0.0,0.0,83,0.00,,,0.00,WUHU216HW,2013-03-05 07:25:00,
2013-03-04 22:30:00,6.7,2.8,30.29,North,0,0.0,0.0,84,0.00,,,0.00,WUHU216HW,2013-03-05 07:30:00,
2013-03-04 22:35:00,6.7,2.8,30.29,North,0,0.0,0.0,84,0.00,,,0.00,WUHU216HW,2013-03-05 07:35:00,
2013-03-04 22:40:00,6.3,2.2,30.29,North,0,0.0,0.0,83,0.00,,,0.00,WUHU216HW,2013-03-05 07:40:00,
2013-03-04 22:45:00,6.1,2.3,30.29,North,0,0.0,0.0,84,0.00,,,0.00,WUHU216HW,2013-03-05 07:45:00,
2013-03-04 22:50:00,6.1,2.5,30.29,North,0,0.0,0.0,85,0.00,,,0.00,WUHU216HW,2013-03-05 07:50:00,
2013-03-04 22:55:00,6.1,2.3,30.29,North,0,0.0,0.0,84,0.00,,,0.00,WUHU216HW,2013-03-05 07:55:00,
2013-03-04 23:00:00,5.8,1.6,30.28,North,0,0.0,0.0,83,0.00,,,0.00,WUHU216HW,2013-03-05 08:00:00,
2013-03-04 23:05:00,5.4,1.3,30.28,North,0,0.0,0.0,83,0.00,,,0.00,WUHU216HW,2013-03-05 08:05:00,
2013-03-04 23:10:00,5.4,1.3,30.28,North,0,0.0,0.0,83,0.00,,,0.00,WUHU216HW,2013-03-05 08:10:00,
2013-03-04 23:15:00,5.2,1.1,30.28,North,0,0.0,0.0,83,0.00,,,0.00,WUHU216HW,2013-03-05 08:15:00,
2013-03-04 23:20:00,5.0,0.9,30.28,North,0,0.0,0.0,83,0.00,,,0.00,WUHU216HW,2013-03-05 08:20:00,
2013-03-04 23:25:00,5.2,1.1,30.28,North,0,0.0,0.0,83,0.00,,,0.00,WUHU216HW,2013-03-05 08:25:00,
2013-03-04 23:30:00,5.4,1.3,30.28,North,0,0.0,0.0,83,0.00,,,0.00,WUHU216HW,2013-03-05 08:30:00,
2013-03-04 23:35:00,5.4,1.5,30.27,North,0,0.0,0.0,84,0.00,,,0.00,WUHU216HW,2013-03-05 08:35:00,
2013-03-04 23:40:00,5.4,1.3,30.27,North,0,0.0,0.0,83,0.00,,,0.00,WUHU216HW,2013-03-05 08:40:00,
2013-03-04 23:45:00,5.0,0.9,30.27,North,0,0.0,0.0,83,0.00,,,0.00,WUHU216HW,2013-03-05 08:45:00,
2013-03-04 23:50:00,5.0,0.9,30.27,North,0,0.0,0.0,83,0.00,,,0.00,WUHU216HW,2013-03-05 08:50:00,
2013-03-04 23:55:00,4.9,0.7,30.27,North,0,0.0,0.0,83,0.00,,,0.00,WUHU216HW,2013-03-05 08:55:00,